Powrót do katalogu

IBEX

LostNaukaHEO
NORAD 33401·PAYLOAD·🇺🇸 United States

Wystrzelony Oct 19, 2008 z Vandenberg Space Force Base

Loading…

Następne Przeloty (najbliższe 24 godziny)

TLE

NieaktualneSource: Space-Track

Epoka: Jul 25, 2025, 23:19 UTC

1 33401U 08051A   25206.97184344 -.00002141  00000-0  00000-0 0  9999
2 33401  46.2961  10.9471 7278850  50.1397   2.4308  0.10949703  5381

Śledź IBEX w czasie rzeczywistym z AllMySat

Download on the App Store